TimeMST,TemperatureF,Dew PointF,Humidity,Sea Level PressureIn,VisibilityMPH,Wind Direction,Wind SpeedMPH,Gust SpeedMPH,PrecipitationIn,Events,Conditions,WindDirDegrees,DateUTC
12:53 AM,37.9,25.0,60,29.60,10.0,West,12.7,-,N/A,,Overcast,260,2012-01-20 07:53:00
1:53 AM,37.9,24.1,57,29.60,10.0,West,29.9,46.0,N/A,,Mostly Cloudy,280,2012-01-20 08:53:00
2:53 AM,35.1,25.0,67,29.62,10.0,West,20.7,28.8,N/A,,Clear,260,2012-01-20 09:53:00
3:53 AM,35.1,24.1,64,29.60,10.0,West,28.8,39.1,N/A,,Overcast,260,2012-01-20 10:53:00
4:53 AM,34.0,24.1,67,29.64,10.0,West,21.9,29.9,N/A,,Overcast,260,2012-01-20 11:53:00
5:53 AM,33.1,23.0,66,29.65,10.0,SW,19.6,-,N/A,,Overcast,230,2012-01-20 12:53:00
6:53 AM,33.1,23.0,66,29.65,10.0,WSW,19.6,31.1,N/A,,Overcast,240,2012-01-20 13:53:00
7:53 AM,33.1,25.0,72,29.68,10.0,West,21.9,28.8,N/A,,Overcast,260,2012-01-20 14:53:00
8:53 AM,32.0,26.1,79,29.74,10.0,SW,9.2,-,N/A,,Mostly Cloudy,220,2012-01-20 15:53:00
9:53 AM,34.0,23.0,64,29.75,10.0,West,21.9,31.1,N/A,,Scattered Clouds,260,2012-01-20 16:53:00
10:53 AM,37.9,21.0,51,29.75,10.0,West,31.1,40.3,N/A,,Mostly Cloudy,280,2012-01-20 17:53:00
11:53 AM,42.1,21.0,43,29.74,10.0,WNW,34.5,42.6,N/A,,Partly Cloudy,290,2012-01-20 18:53:00
12:53 PM,39.9,21.9,49,29.76,10.0,West,21.9,34.5,N/A,,Clear,270,2012-01-20 19:53:00
1:53 PM,39.9,23.0,51,29.76,10.0,West,27.6,35.7,N/A,,Clear,280,2012-01-20 20:53:00
2:53 PM,39.9,21.9,49,29.80,10.0,WNW,20.7,25.3,N/A,,Clear,300,2012-01-20 21:53:00
3:53 PM,37.9,21.9,53,29.82,10.0,West,24.2,-,N/A,,Clear,280,2012-01-20 22:53:00
4:53 PM,30.9,19.0,61,29.89,10.0,West,11.5,-,N/A,,Clear,270,2012-01-20 23:53:00
5:53 PM,30.9,19.0,61,29.91,10.0,West,13.8,-,N/A,,Clear,270,2012-01-21 00:53:00
6:53 PM,32.0,19.9,61,29.90,10.0,West,16.1,-,N/A,,Clear,260,2012-01-21 01:53:00
7:53 PM,27.0,19.0,72,29.94,10.0,South,8.1,-,N/A,,Clear,180,2012-01-21 02:53:00
8:53 PM,30.0,21.0,69,29.90,10.0,SW,17.3,-,N/A,,Clear,230,2012-01-21 03:53:00
9:53 PM,30.0,21.0,69,29.87,10.0,SW,16.1,-,N/A,,Clear,230,2012-01-21 04:53:00
10:53 PM,28.0,19.9,72,29.84,10.0,SSW,9.2,-,N/A,,Clear,200,2012-01-21 05:53:00
11:53 PM,34.0,19.9,56,29.74,10.0,SW,18.4,-,N/A,,Clear,220,2012-01-21 06:53:00